This is the latest recevied weather packets stored in our database for station/object KD0ISH. If no packets are shown the sender has not sent any weather packets the latest 10 day(s).
| Time | Temp. | Humidity | Pressure | Rain* | Wind** | Luminosity | Snow |
|---|---|---|---|---|---|---|---|
| 1778082753 | 12.78° C | 65% | 1019.3 hPa | 0 mm | - | 45 W/m² | - |
| 1778081621 | 12.22° C | 66% | 1019.1 hPa | 0 mm | - | 79 W/m² | - |
| 1778081318 | 12.22° C | 67% | 1018.9 hPa | 0 mm | - | 84 W/m² | - |
| 1778081015 | 12.22° C | 68% | 1018.7 hPa | 0 mm | - | 42 W/m² | - |
| 1778080714 | 11.67° C | 71% | 1018.9 hPa | 0 mm | - | 55 W/m² | - |
| 1778080410 | 11.67° C | 71% | 1018.8 hPa | 0 mm | - | 143 W/m² | - |
| 1778080107 | 11.67° C | 71% | 1019 hPa | 0 mm | - | 158 W/m² | - |
| 1778079804 | 11.67° C | 70% | 1019 hPa | 0 mm | - | 192 W/m² | - |
| 1778079501 | 11.67° C | 73% | 1019 hPa | 0 mm | - | 188 W/m² | - |
| 1778079197 | 11.67° C | 72% | 1019 hPa | 0 mm | - | 182 W/m² | - |
| 1778078895 | 11.11° C | 72% | 1019.2 hPa | 0 mm | - | 181 W/m² | - |
| 1778078591 | 11.11° C | 71% | 1018.9 hPa | 0 mm | - | 189 W/m² | - |
| 1778078290 | 11.11° C | 74% | 1019 hPa | 0 mm | - | 160 W/m² | - |
| 1778077986 | 11.11° C | 77% | 1018.9 hPa | 0 mm | - | 170 W/m² | - |
| 1778077685 | 10.56° C | 76% | 1019 hPa | 0 mm | - | 178 W/m² | - |
| 1778077382 | 10.56° C | 76% | 1018.9 hPa | 0 mm | - | 152 W/m² | - |
| 1778077080 | 11.11° C | 78% | 1019 hPa | 0 mm | - | 161 W/m² | - |
| 1778076778 | 10.56° C | 78% | 1019 hPa | 0 mm | - | 154 W/m² | - |
| 1778076476 | 10.56° C | 78% | 1018.9 hPa | 0 mm | - | 141 W/m² | - |
| 1778076172 | 10° C | 78% | 1018.7 hPa | 0 mm | - | 165 W/m² | - |
| 1778075869 | 10° C | 79% | 1018.6 hPa | 0 mm | - | 149 W/m² | - |
| 1778075565 | 9.44° C | 82% | 1018.5 hPa | 0 mm | - | 181 W/m² | - |
| 1778075262 | 9.44° C | 83% | 1018.8 hPa | 0 mm | - | 138 W/m² | - |
| 1778074959 | 8.89° C | 83% | 1018.7 hPa | 0 mm | - | 148 W/m² | - |
| 1778074656 | 8.89° C | 85% | 1018.4 hPa | 0 mm | - | 123 W/m² | - |
* Rain latest hour (hover to see other rain measurements)
** Current wind speed in m/s (hover to see current wind gust speed)